This demonstration page uses our WeatherBlox Daily Observations layout. Learn more.

Left ArrowRight Arrow

Hourly Observations for June 12, 2021

Temp ( °F °C ) Dew Point ( °F °C ) Humidity (%) Winds ( mph kmh ) Pressure ( in mb ) Visibility ( mi km ) Precip ( " mm )
12:51 am 00:51 Clear 73 22.8 9 -12.8 8 8 NW 6 9 29.70 1006 10 16 N/A
1:51 am 01:51 Clear 75 23.9 10 -12.2 8 8 NW 8 13 29.70 1006 10 16 N/A
2:51 am 02:51 Clear 75 23.9 10 -12.2 8 8 NNW 6 9 29.69 1006 10 16 N/A
3:51 am 03:51 Clear 69 20.6 9 -12.8 9 9 ESE 5 7 29.71 1006 10 16 N/A
4:51 am 04:51 Clear 65 18.3 9 -12.8 11 11 N N/A 29.73 1007 10 16 N/A
5:51 am 05:51 Sunny 66 18.9 9 -12.8 10 10 SE 5 7 29.74 1007 10 16 N/A
6:51 am 06:51 Sunny 77 25 12 -11.1 8 8 N N/A 29.75 1007 10 16 N/A
7:51 am 07:51 Sunny 81 27.2 13 -10.6 7 7 N N/A 29.76 1008 10 16 N/A
8:51 am 08:51 Sunny 85 29.4 14 -10 7 7 SW 5 7 29.77 1008 10 16 N/A
9:51 am 09:51 Sunny 90 32.2 16 -8.9 6 6 N N/A 29.76 1008 10 16 N/A
10:51 am 10:51 Sunny 95 35 16 -8.9 5 5 VRB 5 7 29.75 1007 10 16 N/A
11:51 am 11:51 Sunny 100 37.8 16 -8.9 5 5 VRB 3 6 29.72 1006 10 16 N/A
12:51 pm 12:51 Sunny 104 40 20 -6.7 5 5 undefined N/A 29.70 1006 10 16 N/A
1:51 pm 13:51 Mostly Cloudy 106 41.1 20 -6.7 5 5 VRB 5 7 29.67 1005 10 16 N/A
2:51 pm 14:51 Cloudy 107 41.7 20 -6.7 4 4 W 5 7 29.65 1004 10 16 N/A
3:51 pm 15:51 Mostly Cloudy 110 43.3 21 -6.1 4 4 N 3 6 29.63 1003 10 16 N/A
4:51 pm 16:51 Mostly Cloudy 109 42.8 21 -6.1 4 4 NW 13 20 29.62 1003 10 16 N/A
5:51 pm 17:51 Mostly Cloudy 107 41.7 18 -7.8 4 4 WNW 14 22 29.62 1003 10 16 N/A
6:51 pm 18:51 Mostly Cloudy 104 40 11 -11.7 3 3 NW 18 30 29.62 1003 10 16 N/A
7:51 pm 19:51 Mostly Cloudy 98 36.7 10 -12.2 4 4 NW 12 19 29.63 1003 10 16 N/A
8:51 pm 20:51 Partly Cloudy 91 32.8 10 -12.2 5 5 NW 9 15 29.66 1004 10 16 N/A
9:51 pm 21:51 Mostly Clear 89 31.7 12 -11.1 5 5 WNW 13 20 29.67 1005 10 16 N/A
10:51 pm 22:51 Clear 87 30.6 9 -12.8 5 5 NW 6 9 29.68 1005 10 16 N/A
11:51 pm 23:51 Clear 85 29.4 10 -12.2 6 6 NW 12 19 29.67 1005 10 16 N/A

Powered by AerisWeather